This demonstration page uses our WeatherBlox Daily Observations layout. Learn more.

Left ArrowRight Arrow

Hourly Observations for June 13, 2021

Temp ( °F °C ) Dew Point ( °F °C ) Humidity (%) Winds ( mph kmh ) Pressure ( in mb ) Visibility ( mi km ) Precip ( " mm )
12:53 am 00:53 Clear 85 29.4 55 12.8 36 36 SSE 15 24 29.80 1009 10 16 0.00 0.00
1:53 am 01:53 Clear 82 27.8 57 13.9 42 42 SSE 10 17 29.81 1010 10 16 0.00 0.00
2:53 am 02:53 Clear 81 27.2 59 15 47 47 ESE 10 17 29.83 1010 10 16 0.00 0.00
3:53 am 03:53 Clear 80 26.7 60 15.6 51 51 E 16 26 29.86 1011 10 16 0.00 0.00
4:53 am 04:53 Clear 79 26.1 62 16.7 56 56 E 13 20 29.87 1012 10 16 0.00 0.00
5:53 am 05:53 Clear 78 25.6 65 18.3 64 64 ESE 15 24 29.84 1011 10 16 0.00 0.00
6:53 am 06:53 Sunny 77 25 65 18.3 66 66 SE 16 26 29.86 1011 10 16 0.00 0.00
7:53 am 07:53 Mostly Sunny 77 25 65 18.3 66 66 ESE 14 22 29.92 1013 10 16 0.00 0.00
8:08 am 08:08 Mostly Sunny 77 25 65 18.3 66 66 SSE 15 24 29.90 1013 10 16 0.00 0.00
8:19 am 08:19 Sunny with Nearby Thunderstorms 77 25 65 18.3 66 66 SE 15 24 29.90 1013 10 16 0.00 0.00
8:39 am 08:39 Sunny 78 25.6 65 18.3 64 64 S 12 19 29.92 1013 10 16 0.00 0.00
8:53 am 08:53 Sunny 78 25.6 65 18.3 64 64 S 13 20 29.93 1014 10 16 0.00 0.00
9:53 am 09:53 Sunny 80 26.7 65 18.3 60 60 SE 15 24 29.94 1014 10 16 0.00 0.00
10:53 am 10:53 Sunny 86 30 63 17.2 46 46 SE 15 24 29.94 1014 10 16 0.00 0.00
11:53 am 11:53 Sunny 92 33.3 60 15.6 34 34 SE 12 19 29.92 1013 10 16 0.00 0.00
12:53 pm 12:53 Sunny 95 35 51 10.6 23 23 SSE 6 9 29.91 1013 10 16 0.00 0.00
1:53 pm 13:53 Sunny 98 36.7 51 10.6 20 20 SSE 15 24 29.87 1012 10 16 0.00 0.00
2:53 pm 14:53 Sunny 99 37.2 51 10.6 20 20 ESE 9 15 29.86 1011 10 16 0.00 0.00
3:53 pm 15:53 Sunny 100 37.8 49 9.4 18 18 SE 16 26 29.84 1010 10 16 0.00 0.00
4:53 pm 16:53 Sunny 101 38.3 50 10 18 18 SSW 10 17 29.82 1010 10 16 0.00 0.00
5:53 pm 17:53 Sunny N/A N/A N/A undefined N/A N/A N/A 0.00 0.00
6:53 pm 18:53 Sunny N/A N/A N/A undefined N/A N/A N/A 0.00 0.00
7:53 pm 19:53 Sunny N/A N/A N/A undefined N/A N/A N/A 0.00 0.00
8:53 pm 20:53 Sunny N/A N/A N/A undefined N/A N/A N/A 0.00 0.00
9:53 pm 21:53 Clear N/A N/A N/A undefined N/A N/A N/A 0.00 0.00
10:53 pm 22:53 Clear N/A N/A N/A undefined N/A N/A N/A 0.00 0.00
11:53 pm 23:53 Clear N/A N/A N/A undefined N/A N/A N/A 0.00 0.00

Powered by AerisWeather